Regional Weather Roundup
Issued by NWS

Home | Current Version | Previous Version | Graphics & Text | Print | Product List | Glossary On
Versions: 1 2 3 4 5 6 7 8 9 10 11 12 13 14 15 16 17 18 19 20 21 22 23 24 25 26 27 28 29 30 31 32 33 34 35 36 37 38 39 40 41 42 43 44 45 46 47 48 49 50
000
ASUS43 KOAX 170302
RWRNE

WEATHER ROUNDUP FOR NEBRASKA
NATIONAL WEATHER SERVICE OMAHA NE
900 PM CST SAT DEC 16 2017

NOTES: SATELLITE DATA IS BEING USED TO AUGMENT CLOUD COVER ABOVE
       12000 FEET.
       "FAIR" INDICATES FEW OR NO CLOUDS BELOW 12,000 FEET WITH NO
       SIGNIFICANT WEATHER AND/OR OBSTRUCTIONS TO VISIBILITY.


NEZ001>004-019>022-054>056-170400-
NEBRASKA PANHANDLE

CITY           SKY/WX    TMP DP  RH WIND       PRES   REMARKS
SCOTTSBLUFF    CLOUDY    34  28  79 E13       29.98S WCI  25
ALLIANCE       CLOUDY    32  28  85 NE12      29.98R WCI  23
CHADRON        CLOUDY    31  26  82 N6        30.04R WCI  25
GORDON         CLOUDY    32  28  88 CALM      30.01S
KIMBALL        CLOUDY    31  28  88 NE12      29.95R WCI  22
SIDNEY         CLOUDY    33  28  81 NE14      29.95S WCI  23
$$

NEZ057>060-069>072-079>082-170400-
SOUTHWEST NEBRASKA

CITY           SKY/WX    TMP DP  RH WIND       PRES   REMARKS
NORTH PLATTE   CLOUDY    38  33  82 NE16      29.96R WCI  29
IMPERIAL       CLOUDY    36  32  85 NE14      29.95R WCI  27
LEXINGTON      CLEAR     35  30  82 NE13      29.95R WCI  26
MCCOOK         CLEAR     33  28  81 N16       29.91R WCI  23
OGALLALA       CLOUDY    37  32  81 NE14      29.97R WCI  29
$$

NEZ005>010-023>029-035>040-094-170400-
NORTH CENTRAL NEBRASKA

CITY           SKY/WX    TMP DP  RH WIND       PRES   REMARKS
VALENTINE      CLOUDY    37  32  82 N8        30.03R WCI  31
AINSWORTH      CLOUDY    37  34  90 N8        30.02R WCI  30
BROKEN BOW     CLOUDY    39  33  79 NE15G21   29.97R WCI  31
O`NEILL        PTCLDY    35  33  94 N8        30.01S WCI  28
ORD            CLOUDY    34  32  92 N8        29.98R WCI  27
THEDFORD       CLOUDY    37  32  84 N8        29.99S WCI  31
$$

NEZ041-046>049-061>064-073>077-083>087-170400-
SOUTH CENTRAL NEBRASKA

CITY           SKY/WX    TMP DP  RH WIND       PRES   REMARKS
GRAND ISLAND   CLOUDY    31  30  96 N10       29.96R WCI  22
AURORA         CLOUDY    32  29  89 N9        29.95R WCI  24
HASTINGS       CLOUDY    34  28  79 NE13      29.93R WCI  25
HEBRON         CLOUDY    37  23  56 CALM      29.90F
HOLDREGE       CLOUDY    34  29  82 N13       29.91F WCI  25
KEARNEY        CLOUDY    32  28  85 N13       29.95R WCI  22
$$

NEZ011>018-030>034-042>045-170400-
NORTHEAST NEBRASKA

CITY           SKY/WX    TMP DP  RH WIND       PRES   REMARKS
NORFOLK        CLEAR     32  30  92 NE6       29.97S WCI  26
ALBION         CLEAR     36  32  87 N8        29.98R WCI  30
BLAIR          CLOUDY    38  28  69 N9        29.95S WCI  31
COLUMBUS       CLOUDY    35  29  78 N13       29.97R WCI  26
FREMONT        CLOUDY    35  27  74 N3        29.97R
TEKAMAH        CLEAR     31  23  72 N6        29.99R WCI  25
WAYNE          PTCLDY    31  30  96 NE6       30.00F WCI  25
$$

NEZ050>053-065>068-078-088>093-170400-
SOUTHEAST NEBRASKA

CITY           SKY/WX    TMP DP  RH WIND       PRES   REMARKS
LINCOLN        CLOUDY    36  26  67 N9        29.95S WCI  29
OMAHA EPPLEY   CLOUDY    34  24  67 N9        29.95S WCI  27
BEATRICE       CLOUDY    39  24  54 NE6       29.91R WCI  35
FALLS CITY     CLOUDY    42  25  50 S5        29.92R
NEBRASKA CITY  CLOUDY    38  25  59 N7        29.92S WCI  33
$$

NEZ044-045-051>053-067-170400-
OMAHA AREA

CITY           SKY/WX    TMP DP  RH WIND       PRES   REMARKS
OMAHA EPPLEY   CLOUDY    34  24  67 N9        29.95S WCI  27
BLAIR          CLOUDY    38  28  69 N9        29.95S WCI  31
FREMONT        CLOUDY    35  27  74 N3        29.97R
MILLARD        CLOUDY    40  29  64 N5        29.94F
OFFUTT AFB     CLOUDY    40  26  57 N8        29.92F WCI  34
WAHOO          FAIR      32  26  78 N12       29.95S WCI  23
$$




USA.gov is the U.S. government's official web portal to all federal, state and local government web resources and services.